Regional Weather Roundup
Issued by NWS Bismarck, ND

Home | Current Version | Previous Version | Text Only | Print | Product List | Glossary On
Versions: 1 2 3 4 5 6 7 8 9 10 11 12 13 14 15 16 17 18 19 20 21 22 23 24 25 26 27 28 29 30 31 32 33 34 35 36 37 38 39 40 41 42 43 44 45 46 47 48 49 50
000
ASUS43 KBIS 241110
RWRBIS

NWR BROADCAST TEXT
NATIONAL WEATHER SERVICE BISMARCK ND
500 AM CST FRI NOV 24 2017

NOTE: "FAIR" INDICATES FEW OR NO CLOUDS BELOW 12,000 FEET WITH NO
SIGNIFICANT WEATHER AND/OR OBSTRUCTIONS TO VISIBILITY.


CITY           SKY/WX    TMP DP  RH WIND       PRES   REMARKS
WILLISTON      CLOUDY    41  37  86 NW8       29.43R
MINOT          CLOUDY    43  35  73 W9        29.35R
MINOT AFB      CLOUDY    39  35  88 W9        29.32S
BISMARCK       CLOUDY    51  37  58 W8        29.41R
DICKINSON      LGT RAIN  49  44  83 W18       29.46R
GARRISON         N/A     47  42  83 W12       29.37R
HETTINGER ARPT CLOUDY    52  32  46 NW15      29.48R
JAMESTOWN      MOCLDY    51  37  58 W14       29.31S
CARRINGTON     FAIR      50  41  71 W16       29.33F
HAZEN          LGT RAIN  46  41  81 W10       29.41R
LINTON           N/A     46  34  61 W3        29.42R
MANDAN         CLOUDY    52  37  58 NW13      29.41R
OAKES            N/A     43  37  81 W8        29.35R
RUGBY          CLOUDY    37  37 100 W9        29.32R
STANLEY        CLOUDY    37  37 100 W9        29.40S
TIOGA          LGT RAIN  37  37 100 W6        29.40S
WATFORD CITY   PTSUNNY   43  41  93 N7        29.40R
$$

CITY           SKY/WX    TMP DP  RH WIND       PRES   REMARKS
GRAND FORKS    CLOUDY    39  35  86 SE7       29.21F
GRAND FORKS AF LGT RAIN  41  36  81 N3        29.25F
DEVILS LAKE    CLOUDY    40  36  86 W10       29.30R
FARGO          CLOUDY    45  37  73 SW9       29.28S
CANDO          PTSUNNY   37  37 100 NW8       29.32R
CAVALIER       PTSUNNY   39  37  93 NW9       29.26R
GRAFTON        FAIR      36  36 100 W6        29.28R
GWINNER          N/A     43  37  81 SW13      29.33S
LANGDON        FAIR      37  37 100 NW15      29.28R
ROLLA          PTSUNNY   41  37  87 NW9       29.28F
WALHALLA       FAIR      41  41 100 NW7G15    29.27S
$$

CITY           SKY/WX    TMP DP  RH WIND       PRES   REMARKS
ABERDEEN       CLOUDY    40  36  86 SW8       29.37F
MOBRIDGE       CLOUDY    50  35  56 MISG      29.39R
RAPID CITY     CLEAR     51  30  44 SW8       29.54F
GLASGOW        CLEAR     40  36  86 NW13      29.53R
SIDNEY         MOCLDY    50  44  80 W24       29.42R
WOLF POINT     PTCLDY    43  38  82 NW15      29.51R
GLENDIVE       CLOUDY    48  42  80 W22       29.49F
MILES CITY     MOCLDY    48  44  86 NW12      29.58R
BAKER          LGT RAIN  47  43  86 W13       29.55R
$$

CITY           SKY/WX    TMP DP  RH WIND       PRES   REMARKS
BILLINGS       MOCLDY    49  36  61 NW22G29   29.69R
GREAT FALLS    CLEAR     42  18  37 W21G33    29.71R
REGINA         MOCLDY    36  34  93 W15G23    29.41R
ESTEVAN        LGT RAIN  37  36  93 W14       29.38R
$$




USA.gov is the U.S. government's official web portal to all federal, state and local government web resources and services.